Weather in Udine

Italy     46°04′08″N   13°14′39″E
temp.,
°C
wind,
m/s
gust,
m/s
humid.,
%
clouds,
%
prec.,
mm/h
press.,
hPa
HPBL,
m
1 december, wed
wed101:00+1ne226891 0.0 101415
04:00+2ene2278100 0.0 101418
07:00+2ne32815 0.0 101527
10:00+6e237620 0.0 1014167
13:00+8ene226898 0.0 1012370
16:00+7e1178100 0.0 100913
19:00+6wnw1184100 0.2 100717
22:00+6ne2291100 0.6 100675
2 december, thu
thu201:00+6n1293100 2.6 100351
04:00+6wnw1196100 1.9 100126
07:00+7ese3598100 5.1 1000118
10:00+7sse1297100 1.3 1001170
13:00+7ese1197100 7.0 99997
16:00+6ne4789100 4.7 997286
19:00+6ene2488100 4.9 997156
22:00+6ne3591100 1.4 1000216
3 december, fri
fri301:00+6n2492100 5.3 1002185
04:00+5nnw4781100 1.2 1004298
07:00+5nnw2280100 1.6 100847
10:00+6nne4668100 0.0 1010226
13:00+8ne454798 0.1 1012762
16:00+6e226573 0.0 101324
19:00+3ne33787 0.0 101549
22:00+2nne34725 0.0 101668
4 december, sat
sat401:00+1n3371100 0.0 101553
04:00+1nne2270100 0.0 101326
07:00+2ne1170100 0.0 101210
10:00+3ese0063100 0.0 1012170
13:00+5se1160100 0.0 1010339
16:00+4ese1170100 0.0 100910
19:00+3ne2389100 0.1 1008280
22:00+4nne1381100 0.6 1006105
5 december, sun
sun501:00+4ne2279100 0.6 100457
04:00+4nnw2278100 0.1 100331
07:00+4n1184100 0.1 100323
10:00+4nne2396100 3.7 1004444
13:00+4n3691100 11.1 1003295
16:00+4nw3589100 1.8 1004199
19:00+4nnw3587100 3.4 1006158
22:00+3n4790100 3.1 1009321